Regional Weather Roundup
Issued by NWS Cleveland, OH

Home | Current Version | Previous Version | Text Only | Print | Product List | Glossary Off
Versions: 1 2 3 4 5 6 7 8 9 10 11 12 13 14 15 16 17 18 19 20 21 22 23 24 25 26 27 28 29 30 31 32 33 34 35 36 37 38 39 40 41 42 43 44 45 46 47 48 49 50

000
ASUS41 KCLE 031112
RWRCLE
OHIO REGIONAL WEATHER ROUNDUP
NATIONAL WEATHER SERVICE WILMINGTON, OH
700 AM EDT TUE MAY 03 2016

NOTE: "FAIR" INDICATES FEW OR NO CLOUDS BELOW 12,000 FEET WITH NO
SIGNIFICANT WEATHER AND/OR OBSTRUCTIONS TO VISIBILITY.

OHZ001>008-015>018-024>027-034-035-043-044-031200-
   NORTHWEST OHIO

CITY           SKY/WX    TMP DP  RH WIND       PRES   REMARKS
DEFIANCE       CLOUDY    47  46  97 CALM      29.94R FOG
FINDLAY        CLOUDY    49  43  80 N3        29.93R
TOLEDO EXPRESS CLOUDY    45  45 100 S3        29.93S FOG
TOLEDO EXEC    CLOUDY    48  45  89 CALM      29.94S FOG
LIMA           CLOUDY    47  45  93 N5        29.93S FOG
$$

OHZ009>014-019>023-028>033-038-089-031200-
   NORTHEAST OHIO

CITY           SKY/WX    TMP DP  RH WIND       PRES   REMARKS
CLE-HOPKINS    FAIR      45  42  89 CALM      29.94S
CLE-LAKEFRONT  FAIR      46  43  89 CALM      29.92S
CUY CO. ARPT   CLOUDY    48  48 100 CALM      29.93  FOG
LORAIN-ELYRIA  CLOUDY    45  43  93 CALM      29.93R FOG
ASHTABULA      CLOUDY    42  41  96 CALM      29.93S FOG
AKRON-CANTON   MOCLDY    41  38  89 NE7       29.90F
WOOSTER        CLOUDY    41  40  96 NW3       29.92R FOG
MANSFIELD      MOCLDY    41  41 100 CALM      29.91S FOG
YOUNGSTOWN     CLOUDY    42  40  92 NE6       29.89F FOG
$$

OHZ042-051>053-060>062-070>072-077>081-031200-
  SOUTHWEST OHIO

CITY           SKY/WX    TMP DP  RH WIND       PRES   REMARKS
CINC-COVINGTON CLOUDY    53  51  93 NW5       29.89S
CINC-LUNKEN    CLOUDY    54  50  86 NE3       29.91S
HAMILTON       CLOUDY    53  49  86 N6        29.92S
DAYTON         CLOUDY    48  45  89 N8        29.92S
WRIGHT-PAT AFB MOCLDY    49  47  92 N6        29.91R
DAYTON GENERAL CLOUDY    50  44  80 NE6       29.90S
WILMINGTON     CLOUDY    49  47  93 N6        29.89S
$$

OHZ036-037-039>041-045>050-054>059-063>069-073>076-082>088-031200-
  CENTRAL AND SOUTHEAST OHIO

CITY           SKY/WX    TMP DP  RH WIND       PRES   REMARKS
COLUMBUS       MOCLDY    46  44  93 N6        29.90S
OSU AIRPORT    FAIR      47  44  90 N5        29.90S
BOLTON FIELD   CLOUDY    47  45  94 N5        29.90F
RICKENBACK AFB CLOUDY    47  46  93 N6        29.90S
NEWARK         CLOUDY    48  42  80 N5        29.89F
MARION         CLOUDY    45  42  89 NE3       29.92S
LANCASTER      CLOUDY    49  45  86 N3        29.90S
ZANESVILLE     CLOUDY    50  44  80 N5        29.90R
NEW PHILLY     FAIR      45  40  82 NW3       29.90F
$$



USA.gov is the U.S. government's official web portal to all federal, state and local government web resources and services.